Regional Weather Roundup
Issued by NWS

Home | Current Version | Previous Version | Graphics & Text | Print | Product List | Glossary Off
Versions: 1 2 3 4 5 6 7 8 9 10 11 12 13 14 15 16 17 18 19 20 21 22 23 24 25 26 27 28 29 30 31 32 33 34 35 36 37 38 39 40 41 42 43 44 45 46 47 48 49 50

000
ASUS43 KTOP 241859
RWRKS

WEATHER ROUNDUP FOR KANSAS
NATIONAL WEATHER SERVICE GOODLAND KS
200 PM CDT SUN MAY 24 2015

NOTE:  "FAIR" INDICATES FEW OR NO CLOUDS BELOW 12,000 FEET WITH NO
SIGNIFICANT WEATHER AND/OR OBSTRUCTIONS TO VISIBILITY.

KSZ001>006-013>018-027>032-041>047-242000-
NORTHWEST KANSAS

CITY           SKY/WX    TMP DP  RH WIND       PRES   REMARKS
GOODLAND       MOSUNNY   66  53  63 SE6       29.85F
HAYS           CLOUDY    70  55  60 S9        29.85S
HILL CITY      CLOUDY    68  60  75 SW6       29.85F
RUSSELL        CLOUDY    68  60  75 S9        29.83F
$$

KSZ061>065-074>080-084>089-242000-
SOUTHWEST KANSAS

CITY           SKY/WX    TMP DP  RH WIND       PRES   REMARKS
DODGE CITY     CLOUDY    63  57  81 SE12      29.85F
ELKHART          N/A     68  53  58 SE8         N/A
GARDEN CITY    CLOUDY    64  56  75 SE13      29.84F
GREAT BEND     CLOUDY    66  59  77 SE13      29.84F
LIBERAL        CLOUDY    68  57  68 S13       29.84F
$$

KSZ066>073-081>083-090>101-242000-
SOUTHEAST KANSAS

CITY           SKY/WX    TMP DP  RH WIND       PRES   REMARKS
CHANUTE        CLOUDY    68  62  81 S7        29.90F
COFFEYVILLE    LGT RAIN  67  64  90 SE8       29.90F
HUTCHINSON     CLOUDY    68  60  75 SE12      29.86F
NEWTON         CLOUDY    66  57  72 S10       29.89F
PARSONS        LGT RAIN  68  64  87 S6        29.92F
WICHITA INTL   CLOUDY    70  61  73 SE9       29.87F
WICHITA JABRA  CLOUDY    69  61  75 S10       29.88S
WINFIELD       CLOUDY    66  62  87 SE12      29.90S
$$

KSZ007>012-019>026-033>040-048>060-102>105-242000-
NORTHEAST KANSAS

CITY           SKY/WX    TMP DP  RH WIND       PRES   REMARKS
CONCORDIA      CLOUDY    65  60  84 S8        29.85F
EMPORIA        CLOUDY    67  61  81 SE12      29.87F
LAWRENCE       CLOUDY    70  62  76 SW7       29.88F
MANHATTAN      LGT RAIN  70  61  73 S9        29.85F
OLATHE IND     CLOUDY    69  63  81 S5        29.89F
OLATHE EXE     CLOUDY    68  63  84 SW5       29.88F
SALINA         CLOUDY    68  61  78 S10       29.86F
TOPEKA BILLARD CLOUDY    71  62  73 S7        29.87F
TOPEKA FORBES  CLOUDY    71  61  70 S7        29.87F
$$


USA.gov is the U.S. government's official web portal to all federal, state and local government web resources and services.